sat.trackr.live / text

‹ back to catalog

STARLINK-37544

NORAD 68909 · 2026-097Q

PAYLOAD ACTIVE UNKNOWN

§ Identity

Operator
Country
US
Launch date
2026-04-30
Launch site
AFWTR
Launch vehicle
Mass (kg)
RCS (m²)

Purposes: comms

External: N2YO · Heavens-Above · Gunter

§ Orbital elements

Epoch: 2026-09-20T04:52:09.344352Z

Period
93.91 min
Inclination
97.2818°
Eccentricity
0.0002129
Mean motion
15.33460075 rev/d
Perigee alt
464.0 km
Apogee alt
467.0 km
Semi-major
6,843.6 km
B*
5.8359e-4
RAAN
97.3118°
Arg perigee
95.6013°
Mean anomaly
264.5472°
Rev number
2,204

§ Raw data

STARLINK-375441 68909U 26097Q   26263.20288593  .00018822  00000+0  58359-3 0  99952 68909  97.2818  97.3118 0002129  95.6013 264.5472 15.33460075 22048

JSON: /api/v1/satellites/68909 · /tle

For live sub-satellite position, see the globe view (requires WebGL).

§ Visibility from observer

Set your observer location to see the next 7 days of passes ≥ 10°. The values pass through the URL so the page stays shareable.

No JS? Fill the form by hand. The geolocation button needs JavaScript.